SAS717 EINN-EGPH

Flight info

Callsign SAS717
Flight time 0h 55m
Altitude 35000
Route AGINI3A AGINI DCT ROTEV DCT GOTNA DCT BLACA/N0399F250 P600 TUNSO
Aircraft B736/M-SDE2E3FGHIRWXY/LB1

Departure

Time 2026-05-05 22:05
Airport Shannon Airport (EINN)

Arrival

Time 2026-05-05 23:00
Airport Edinburgh Airport (EGPH)
Time Latitude Longitude Altitude Speed Heading
2026-05-05 21:36 52.69370 -8.92176 22 ft 0 kts 186°
2026-05-05 21:54 52.69378 -8.92175 21 ft 2 kts 186°
2026-05-05 21:54 52.69394 -8.92172 21 ft 2 kts 189°
2026-05-05 21:54 52.69410 -8.92168 21 ft 2 kts 194°
2026-05-05 21:54 52.69430 -8.92159 20 ft 4 kts 194°
2026-05-05 21:55 52.69455 -8.92147 22 ft 4 kts 218°
2026-05-05 21:55 52.69467 -8.92110 21 ft 4 kts 267°
2026-05-05 21:55 52.69466 -8.92077 21 ft 0 kts 283°
2026-05-05 21:59 52.69467 -8.92085 22 ft 2 kts 284°
2026-05-05 22:00 52.69476 -8.92138 20 ft 7 kts 287°
2026-05-05 22:00 52.69498 -8.92230 20 ft 11 kts 292°
2026-05-05 22:00 52.69539 -8.92353 22 ft 14 kts 307°
2026-05-05 22:00 52.69613 -8.92482 21 ft 17 kts 315°
2026-05-05 22:01 52.69709 -8.92636 21 ft 21 kts 316°
2026-05-05 22:01 52.69820 -8.92816 21 ft 24 kts 315°
2026-05-05 22:01 52.69920 -8.92995 23 ft 21 kts 288°
2026-05-05 22:01 52.69857 -8.93195 23 ft 20 kts 232°
2026-05-05 22:02 52.69773 -8.93377 26 ft 20 kts 234°
2026-05-05 22:02 52.69692 -8.93553 24 ft 19 kts 232°
2026-05-05 22:02 52.69612 -8.93723 26 ft 20 kts 232°
2026-05-05 22:02 52.69528 -8.93899 30 ft 19 kts 232°
2026-05-05 22:03 52.69444 -8.94076 31 ft 20 kts 232°
2026-05-05 22:03 52.69338 -8.94220 33 ft 21 kts 202°
2026-05-05 22:03 52.69291 -8.94287 32 ft 5 kts 280°
2026-05-05 22:03 52.69318 -8.94329 33 ft 6 kts 356°
2026-05-05 22:04 52.69350 -8.94276 33 ft 8 kts 52°
2026-05-05 22:04 52.69446 -8.94073 31 ft 55 kts 52°
2026-05-05 22:04 52.69831 -8.93250 25 ft 123 kts 53°
2026-05-05 22:04 52.70469 -8.91940 113 ft 161 kts 50°
2026-05-05 22:05 52.71201 -8.90441 560 ft 178 kts 48°
2026-05-05 22:05 52.72054 -8.88826 1068 ft 191 kts 46°
2026-05-05 22:05 52.73091 -8.87692 2087 ft 175 kts 16°
2026-05-05 22:05 52.74263 -8.87128 2954 ft 186 kts 18°
2026-05-05 22:06 52.75614 -8.86369 3293 ft 219 kts 19°
2026-05-05 22:06 52.77123 -8.85463 3658 ft 245 kts 20°
2026-05-05 22:06 52.78757 -8.84431 4409 ft 255 kts 20°
2026-05-05 22:06 52.80428 -8.83332 5259 ft 262 kts 20°
2026-05-05 22:07 52.82140 -8.82171 6122 ft 268 kts 21°
2026-05-05 22:07 52.83881 -8.80964 7010 ft 273 kts 21°
2026-05-05 22:07 52.85635 -8.79728 8000 ft 275 kts 21°
2026-05-05 22:07 52.87402 -8.78469 9046 ft 278 kts 22°
2026-05-05 22:08 52.89187 -8.77188 10113 ft 281 kts 22°
2026-05-05 22:08 52.91034 -8.75857 10721 ft 301 kts 22°
2026-05-05 22:08 52.93034 -8.74411 11191 ft 322 kts 22°
2026-05-05 22:08 52.95086 -8.72921 12030 ft 329 kts 22°
2026-05-05 22:09 52.97201 -8.71382 13018 ft 334 kts 22°
2026-05-05 22:09 52.99351 -8.69813 14007 ft 339 kts 22°
2026-05-05 22:09 53.01526 -8.68225 14877 ft 344 kts 22°
2026-05-05 22:09 53.03740 -8.66606 15768 ft 350 kts 22°
2026-05-05 22:10 53.05989 -8.64959 16675 ft 356 kts 22°
2026-05-05 22:10 53.08272 -8.63287 17573 ft 361 kts 22°
2026-05-05 22:10 53.10591 -8.61586 18473 ft 367 kts 21°
2026-05-05 22:10 53.12943 -8.59859 19271 ft 372 kts 21°
2026-05-05 22:11 53.15197 -8.57804 20058 ft 380 kts 37°
2026-05-05 22:11 53.16971 -8.54488 20891 ft 387 kts 55°
2026-05-05 22:11 53.18414 -8.50657 21718 ft 392 kts 57°
2026-05-05 22:11 53.19825 -8.46717 22475 ft 398 kts 58°
2026-05-05 22:12 53.21243 -8.42697 23247 ft 404 kts 58°
2026-05-05 22:12 53.22676 -8.38636 23965 ft 409 kts 57°
2026-05-05 22:12 53.24137 -8.34524 24625 ft 413 kts 57°
2026-05-05 22:12 53.25614 -8.30387 25304 ft 417 kts 57°
2026-05-05 22:13 53.27093 -8.26261 25954 ft 421 kts 57°
2026-05-05 22:13 53.28611 -8.22036 26598 ft 425 kts 57°
2026-05-05 22:13 53.30149 -8.17757 27175 ft 431 kts 57°
2026-05-05 22:13 53.31704 -8.13429 27776 ft 436 kts 57°
2026-05-05 22:14 53.33272 -8.09057 28398 ft 440 kts 57°
2026-05-05 22:14 53.34853 -8.04639 28985 ft 444 kts 57°
2026-05-05 22:14 53.36426 -8.00237 29558 ft 448 kts 57°
2026-05-05 22:14 53.38036 -7.95724 30107 ft 452 kts 57°
2026-05-05 22:15 53.39651 -7.91186 30560 ft 456 kts 57°
2026-05-05 22:15 53.41284 -7.86591 31017 ft 459 kts 57°
2026-05-05 22:15 53.42922 -7.81971 31456 ft 462 kts 57°
2026-05-05 22:15 53.44568 -7.77320 31869 ft 465 kts 57°
2026-05-05 22:16 53.46224 -7.72633 32288 ft 467 kts 58°
2026-05-05 22:16 53.47860 -7.67992 32778 ft 467 kts 58°
2026-05-05 22:16 53.49512 -7.63298 33348 ft 465 kts 58°
2026-05-05 22:16 53.51152 -7.58629 33898 ft 464 kts 58°
2026-05-05 22:17 53.52805 -7.53913 34302 ft 465 kts 58°
2026-05-05 22:17 53.54448 -7.49218 34682 ft 465 kts 58°
2026-05-05 22:17 53.56089 -7.44522 35065 ft 465 kts 58°
2026-05-05 22:17 53.57727 -7.39823 35453 ft 465 kts 58°
2026-05-05 22:18 53.59342 -7.35182 35811 ft 465 kts 58°
2026-05-05 22:18 53.60983 -7.30459 36170 ft 465 kts 58°
2026-05-05 22:18 53.62617 -7.25748 36537 ft 465 kts 58°
2026-05-05 22:18 53.64233 -7.21077 36856 ft 466 kts 58°
2026-05-05 22:19 53.65867 -7.16347 37195 ft 466 kts 58°
2026-05-05 22:19 53.67497 -7.11619 37558 ft 465 kts 58°
2026-05-05 22:19 53.69125 -7.06884 37910 ft 465 kts 58°
2026-05-05 22:19 53.70747 -7.02161 38216 ft 466 kts 58°
2026-05-05 22:20 53.72378 -6.97403 38542 ft 466 kts 58°
2026-05-05 22:20 53.73975 -6.92736 38846 ft 465 kts 58°
2026-05-05 22:20 53.75599 -6.87979 39078 ft 466 kts 59°
2026-05-05 22:21 53.78869 -6.78375 39099 ft 471 kts 59°
2026-05-05 22:21 53.82104 -6.68834 39084 ft 467 kts 59°
2026-05-05 22:22 53.85327 -6.59289 39089 ft 464 kts 59°
2026-05-05 22:22 53.88523 -6.49792 39090 ft 463 kts 59°
2026-05-05 22:23 53.91687 -6.40353 39091 ft 462 kts 59°
2026-05-05 22:23 53.94861 -6.30846 39086 ft 462 kts 59°
2026-05-05 22:24 53.98029 -6.21323 39087 ft 463 kts 59°
2026-05-05 22:24 54.01268 -6.11826 39081 ft 463 kts 53°
2026-05-05 22:24 54.03332 -6.07744 39086 ft 460 kts 41°
2026-05-05 22:25 54.05809 -6.04296 39087 ft 458 kts 32°
2026-05-05 22:25 54.10482 -6.00115 39110 ft 455 kts 22°
2026-05-05 22:26 54.16233 -5.95575 39092 ft 457 kts 22°
2026-05-05 22:26 54.21964 -5.90973 39061 ft 440 kts 22°
2026-05-05 22:26 54.24650 -5.88772 39059 ft 425 kts 22°
2026-05-05 22:27 54.27275 -5.86608 39060 ft 410 kts 22°
2026-05-05 22:27 54.29802 -5.84519 39062 ft 396 kts 22°
2026-05-05 22:27 54.32241 -5.82500 39067 ft 382 kts 22°
2026-05-05 22:27 54.34572 -5.80569 39071 ft 371 kts 22°
2026-05-05 22:28 54.36901 -5.78643 39104 ft 373 kts 22°
2026-05-05 22:28 54.41690 -5.74683 39111 ft 391 kts 22°
2026-05-05 22:29 54.46658 -5.70550 39106 ft 398 kts 22°
2026-05-05 22:29 54.51628 -5.66395 39088 ft 392 kts 22°
2026-05-05 22:30 54.56454 -5.62356 39078 ft 386 kts 22°
2026-05-05 22:30 54.61087 -5.57632 38845 ft 387 kts 37°
2026-05-05 22:30 54.63084 -5.54650 38378 ft 382 kts 39°
2026-05-05 22:31 54.65066 -5.51579 37652 ft 383 kts 39°
2026-05-05 22:31 54.67073 -5.48458 36515 ft 395 kts 39°
2026-05-05 22:31 54.69155 -5.45241 35258 ft 409 kts 39°
2026-05-05 22:31 54.71330 -5.41903 33926 ft 424 kts 39°
2026-05-05 22:32 54.73551 -5.38503 33330 ft 423 kts 39°
2026-05-05 22:32 54.75738 -5.35159 32702 ft 423 kts 39°
2026-05-05 22:32 54.77978 -5.31736 32190 ft 427 kts 39°
2026-05-05 22:32 54.80216 -5.28316 31659 ft 439 kts 39°
2026-05-05 22:33 54.82520 -5.24788 31098 ft 440 kts 39°
2026-05-05 22:33 54.84803 -5.21282 30546 ft 436 kts 39°
2026-05-05 22:33 54.87071 -5.17813 29982 ft 431 kts 37°
2026-05-05 22:33 54.89472 -5.14778 29379 ft 422 kts 27°
2026-05-05 22:34 54.92052 -5.12453 28857 ft 414 kts 22°
2026-05-05 22:34 54.94631 -5.10290 28303 ft 409 kts 22°
2026-05-05 22:34 54.97160 -5.08172 27776 ft 404 kts 22°
2026-05-05 22:34 54.99682 -5.06031 27258 ft 400 kts 23°
2026-05-05 22:35 55.02173 -5.03885 26722 ft 396 kts 23°
2026-05-05 22:35 55.04635 -5.01746 26218 ft 393 kts 23°
2026-05-05 22:35 55.07070 -4.99623 25707 ft 390 kts 23°
2026-05-05 22:35 55.09389 -4.97294 25195 ft 390 kts 34°
2026-05-05 22:36 55.11338 -4.93973 24717 ft 391 kts 50°
2026-05-05 22:36 55.12761 -4.89942 24275 ft 390 kts 63°
2026-05-05 22:36 55.13864 -4.85611 23802 ft 388 kts 65°
2026-05-05 22:36 55.14916 -4.81261 23241 ft 387 kts 66°
2026-05-05 22:37 55.15952 -4.76935 22692 ft 384 kts 65°
2026-05-05 22:37 55.16972 -4.72693 22212 ft 380 kts 65°
2026-05-05 22:37 55.18000 -4.68449 21722 ft 377 kts 65°
2026-05-05 22:37 55.19027 -4.64239 21243 ft 375 kts 65°
2026-05-05 22:38 55.20050 -4.60061 20746 ft 372 kts 65°
2026-05-05 22:38 55.21067 -4.55915 20283 ft 369 kts 65°
2026-05-05 22:38 55.22078 -4.51793 19815 ft 367 kts 65°
2026-05-05 22:38 55.23081 -4.47699 19348 ft 364 kts 65°
2026-05-05 22:39 55.24077 -4.43630 18880 ft 363 kts 65°
2026-05-05 22:39 55.25066 -4.39580 18426 ft 361 kts 65°
2026-05-05 22:39 55.26049 -4.35548 17882 ft 359 kts 65°
2026-05-05 22:39 55.27017 -4.31571 17392 ft 356 kts 65°
2026-05-05 22:40 55.27985 -4.27586 16922 ft 353 kts 65°
2026-05-05 22:40 55.28939 -4.23649 16453 ft 350 kts 65°
2026-05-05 22:40 55.29889 -4.19721 15988 ft 348 kts 65°
2026-05-05 22:40 55.30832 -4.15820 15535 ft 345 kts 65°
2026-05-05 22:41 55.31765 -4.11947 15079 ft 342 kts 65°
2026-05-05 22:41 55.32689 -4.08108 14611 ft 340 kts 65°
2026-05-05 22:41 55.33608 -4.04288 14168 ft 338 kts 65°
2026-05-05 22:41 55.34507 -4.00540 13696 ft 335 kts 65°
2026-05-05 22:42 55.35409 -3.96770 13201 ft 333 kts 64°
2026-05-05 22:42 55.36303 -3.93030 12716 ft 330 kts 65°
2026-05-05 22:42 55.37188 -3.89323 12257 ft 327 kts 65°
2026-05-05 22:42 55.38063 -3.85646 11809 ft 324 kts 64°
2026-05-05 22:43 55.38922 -3.82035 11357 ft 322 kts 64°
2026-05-05 22:43 55.39782 -3.78414 10912 ft 319 kts 64°
2026-05-05 22:43 55.40636 -3.74812 10482 ft 316 kts 64°
2026-05-05 22:43 55.41465 -3.71304 10343 ft 303 kts 64°
2026-05-05 22:44 55.42262 -3.67921 10200 ft 293 kts 64°
2026-05-05 22:44 55.43030 -3.64664 9955 ft 286 kts 64°
2026-05-05 22:44 55.43782 -3.61478 9606 ft 283 kts 64°
2026-05-05 22:44 55.44532 -3.58294 9278 ft 279 kts 64°
2026-05-05 22:45 55.45271 -3.55149 8922 ft 277 kts 65°
2026-05-05 22:45 55.46003 -3.52033 8602 ft 274 kts 65°
2026-05-05 22:45 55.46728 -3.48938 8278 ft 272 kts 65°
2026-05-05 22:45 55.47445 -3.45870 7949 ft 269 kts 65°
2026-05-05 22:46 55.48165 -3.42823 7631 ft 267 kts 62°
2026-05-05 22:46 55.49285 -3.40313 7279 ft 260 kts 33°
2026-05-05 22:46 55.50930 -3.39154 6999 ft 251 kts
2026-05-05 22:46 55.52637 -3.39379 6856 ft 246 kts 343°
2026-05-05 22:47 55.54170 -3.40693 6723 ft 246 kts 325°
2026-05-05 22:47 55.55548 -3.42442 6572 ft 248 kts 323°
2026-05-05 22:47 55.56938 -3.44274 6423 ft 250 kts 323°
2026-05-05 22:47 55.58328 -3.46116 6269 ft 249 kts 323°
2026-05-05 22:48 55.59713 -3.47947 6115 ft 248 kts 323°
2026-05-05 22:48 55.61093 -3.49765 5985 ft 247 kts 324°
2026-05-05 22:48 55.62468 -3.51573 5843 ft 246 kts 324°
2026-05-05 22:48 55.63842 -3.53377 5710 ft 246 kts 324°
2026-05-05 22:49 55.65214 -3.55178 5581 ft 245 kts 325°
2026-05-05 22:49 55.66574 -3.56961 5447 ft 245 kts 324°
2026-05-05 22:49 55.67952 -3.58767 5303 ft 247 kts 325°
2026-05-05 22:49 55.69329 -3.60575 5165 ft 244 kts 326°
2026-05-05 22:50 55.70671 -3.62337 5028 ft 236 kts 325°
2026-05-05 22:50 55.71971 -3.64046 4892 ft 229 kts 325°
2026-05-05 22:50 55.73233 -3.65706 4757 ft 222 kts 326°
2026-05-05 22:50 55.74456 -3.67315 4630 ft 215 kts 326°
2026-05-05 22:51 55.75641 -3.68874 4512 ft 208 kts 327°
2026-05-05 22:51 55.76784 -3.70380 4396 ft 201 kts 327°
2026-05-05 22:51 55.77884 -3.71832 4289 ft 195 kts 327°
2026-05-05 22:51 55.78941 -3.73229 4196 ft 182 kts 327°
2026-05-05 22:52 55.79952 -3.74564 4088 ft 182 kts 328°
2026-05-05 22:52 55.81017 -3.75693 3993 ft 174 kts 354°
2026-05-05 22:52 55.82079 -3.75182 4002 ft 161 kts 49°
2026-05-05 22:52 55.82670 -3.73529 4016 ft 158 kts 59°
2026-05-05 22:53 55.83217 -3.71912 3998 ft 147 kts 59°
2026-05-05 22:53 55.83737 -3.70389 3991 ft 142 kts 59°
2026-05-05 22:53 55.84228 -3.68936 3999 ft 133 kts 59°
2026-05-05 22:53 55.84700 -3.67544 3990 ft 131 kts 58°
2026-05-05 22:54 55.85213 -3.66154 3795 ft 134 kts 58°
2026-05-05 22:54 55.85707 -3.64769 3606 ft 130 kts 59°
2026-05-05 22:54 55.86177 -3.63408 3430 ft 128 kts 59°
2026-05-05 22:54 55.86637 -3.62056 3255 ft 128 kts 60°
2026-05-05 22:55 55.87098 -3.60689 3077 ft 129 kts 61°
2026-05-05 22:55 55.87554 -3.59335 2912 ft 128 kts 61°
2026-05-05 22:55 55.88008 -3.57984 2719 ft 126 kts 61°
2026-05-05 22:55 55.88445 -3.56688 2536 ft 118 kts 62°
2026-05-05 22:56 55.88855 -3.55468 2374 ft 112 kts 62°
2026-05-05 22:56 55.89258 -3.54268 2232 ft 114 kts 62°
2026-05-05 22:56 55.89665 -3.53059 2074 ft 114 kts 63°
2026-05-05 22:56 55.90072 -3.51848 1913 ft 113 kts 63°
2026-05-05 22:57 55.90475 -3.50649 1762 ft 113 kts 63°
2026-05-05 22:57 55.90882 -3.49443 1592 ft 114 kts 63°
2026-05-05 22:57 55.91294 -3.48218 1436 ft 117 kts 61°
2026-05-05 22:57 55.91714 -3.46974 1257 ft 117 kts 62°
2026-05-05 22:58 55.92129 -3.45742 1081 ft 118 kts 61°
2026-05-05 22:58 55.92553 -3.44485 920 ft 119 kts 62°
2026-05-05 22:58 55.92981 -3.43219 754 ft 119 kts 60°
2026-05-05 22:58 55.93415 -3.41931 587 ft 121 kts 60°
2026-05-05 22:59 55.93846 -3.40654 409 ft 120 kts 61°
2026-05-05 22:59 55.94286 -3.39374 276 ft 121 kts 59°
2026-05-05 22:59 55.94728 -3.38090 172 ft 122 kts 61°
2026-05-05 22:59 55.95145 -3.36856 113 ft 106 kts 61°
2026-05-05 23:00 55.95530 -3.35692 112 ft 27 kts 59°
2026-05-05 23:00 55.95540 -3.35480 113 ft 12 kts 148°
2026-05-05 23:00 55.95471 -3.35410 114 ft 11 kts 160°
2026-05-05 23:01 55.95409 -3.35467 115 ft 11 kts 240°
2026-05-05 23:01 55.95371 -3.35585 115 ft 11 kts 239°
2026-05-05 23:01 55.95331 -3.35697 113 ft 11 kts 238°
2026-05-05 23:01 55.95293 -3.35807 113 ft 10 kts 238°
2026-05-05 23:02 55.95256 -3.35914 114 ft 10 kts 238°
2026-05-05 23:02 55.95219 -3.36021 115 ft 11 kts 238°
2026-05-05 23:02 55.95177 -3.36148 114 ft 13 kts 239°
2026-05-05 23:02 55.95128 -3.36298 114 ft 15 kts 239°
2026-05-05 23:03 55.95053 -3.36388 115 ft 14 kts 164°
2026-05-05 23:03 55.94978 -3.36481 115 ft 15 kts 241°
2026-05-05 23:03 55.94925 -3.36646 114 ft 9 kts 240°
2026-05-05 23:03 55.94878 -3.36631 115 ft 3 kts 125°
2026-05-05 23:04 55.94858 -3.36608 115 ft 4 kts 146°
2026-05-05 23:04 55.94853 -3.36603 115 ft 0 kts 146°